Regional Weather Roundup
Issued by NWS

Home | Current Version | Previous Version | Text Only | Print | Product List | Glossary On
Versions: 1 2 3 4 5 6 7 8 9 10 11 12 13 14 15 16 17 18 19 20 21 22 23 24 25 26 27 28 29 30 31 32 33 34 35 36 37 38 39 40 41 42 43 44 45 46 47 48 49 50
000
ASUS43 KLOT 190908
RWRIL

ILLINOIS REGIONAL WEATHER ROUNDUP
NATIONAL WEATHER SERVICE CHICAGO/ROMEOVILLE IL
400 AM CDT THU APR 19 2018

NOTE: "FAIR" INDICATES FEW OR NO CLOUDS BELOW 12,000 FEET WITH NO
SIGNIFICANT WEATHER AND/OR OBSTRUCTIONS TO VISIBILITY.

* THESE STATIONS ARE NOT UNDER NWS QUALITY CONTROL. THEY ALSO MAY NOT
  REPORT WEATHER SUCH AS PRECIPITATION OR FOG.

ILZ001-002-007-009-015-016-024-191000-
NORTHWEST ILLINOIS

CITY           SKY/WX    TMP DP  RH WIND       PRES   REMARKS
MOLINE         CLOUDY    34  31  88 NW9       30.18R WCI  27
STERLING*      CLOUDY    33  30  88 N10       30.15R WCI  25
SAVANNA*       CLOUDY    33  30  90 NW7       30.17R WCI  26
$$

ILZ003-004-008-010-011-017-018-191000-
NORTH CENTRAL ILLINOIS

CITY           SKY/WX    TMP DP  RH WIND       PRES   REMARKS
ROCKFORD       FAIR      32  28  85 N13       30.14R WCI  22
FREEPORT*      MOCLDY    32  28  86 N7        30.16R WCI  25
ROCHELLE*      FAIR      31  29  92 N9        30.13R WCI  23
DE KALB*       FAIR      31  29  93 N10       30.11R WCI  22
PERU*          CLOUDY    36  33  88 N14       30.13R WCI  27
$$

ILZ005-006-012>014-019>023-191000-
NORTHEAST ILLINOIS

CITY           SKY/WX    TMP DP  RH WIND       PRES   REMARKS
CHICAGO-OHARE  MOCLDY    34  33  96 N10       30.07R WCI  26
CHICAGO-MIDWAY CLOUDY    36  34  92 N10       30.07R WCI  28
AURORA         CLOUDY    34  31  88 N9        30.09R WCI  27
LANSING*       LGT RAIN  35  34  97 N9        30.06R WCI  27
JOLIET*        CLOUDY    36  34  94 N8        30.09R WCI  29
WAUKEGAN       FAIR      34  30  85 N6        30.08R WCI  29
DUPAGE AIRPORT MOCLDY    33  32  96 N10       30.07R WCI  25
KANKAKEE*      CLOUDY    33  32  95 N12       30.07R WCI  25
WHEELING       CLOUDY    36  33  89 N8        30.09R WCI  30
MORRIS*        CLOUDY    34  32  94 N5        30.09R WCI  29
ROMEOVILLE*    CLOUDY    34  32  93 N10       30.08R WCI  26
NORTHERLY ISL    N/A     35  33  92 N14         N/A  WCI  26
$$

LMZ740>746-191000-
SOUTHERN LAKE MICHIGAN

STATION/POSITION SKY/WX   TEMP    WIND        PRES    VSBY  WAVE
                          AIR SEA DIR/SP/G                  HT/PER
                          (F)     (DEG/KT/KT) (MB)    (MI)  (FT/S)
HARRISON CRIB              37     350/ 15/ 17   N/A
BURNHAM HARBOR             36     330/ 11/ 19   N/A
CALUMET HARBOR             36     360/ 13/ 17 1017.4R
BURNS HARBOR               36      30/ 20/ 26 1017.6R
MICHIGAN CITY              35     360/ 22/ 24   N/A
$$

ILZ025>027-034>036-040-047-049-050-058-095>099-191000-
WEST-CENTRAL ILLINOIS

CITY           SKY/WX    TMP DP  RH WIND       PRES   REMARKS
QUINCY         CLOUDY    32  26  78 NW12      30.19R WCI  23
GALESBURG*     CLOUDY    37  34  92 NW8       30.18R WCI  30
MACOMB*        CLOUDY    33  30  89 NW13G18   30.20R WCI  24
JACKSONVILLE*  CLOUDY    33  27  77 NW14      30.17R WCI  24
PITTSFIELD*    CLOUDY    35  27  74 NW16G22   30.19R WCI  25
$$

ILZ028>032-037-038-041>044-048-051>054-059>061-191000-
CENTRAL ILLINOIS

CITY           SKY/WX    TMP DP  RH WIND       PRES   REMARKS
PONTIAC        CLOUDY    34  33  98 NW13      30.11R WCI  25
BLOOMINGTON    CLOUDY    33  30  88 NW15      30.11R WCI  23
DECATUR        CLOUDY    34  29  82 NW17G23   30.12R WCI  23
PEORIA         CLOUDY    34  30  85 NW8       30.15R WCI  27
LACON*         CLOUDY    33  32  95 N10       30.13R WCI  25
LINCOLN*       CLOUDY    35  32  88 NW7       30.14R WCI  29
SPRINGFIELD    CLOUDY    36  29  75 NW13G20   30.15R WCI  27
TAYLORVILLE    CLOUDY    34  28  77 NW12G20   30.14R WCI  26
$$

ILZ033-039-045-046-055>057-062-063-191000-
EAST-CENTRAL ILLINOIS

CITY           SKY/WX    TMP DP  RH WIND       PRES   REMARKS
CHAMPAIGN      CLOUDY    34  30  85 NW16      30.08R WCI  24
DANVILLE*      LGT SNOW  32  32  99 NW14      30.03R WCI  22
RANTOUL*       LGT SNOW  35  33  92 NW16      30.07R WCI  24
MATTOON        CLOUDY    34  30  85 NW18      30.09R WCI  23
PARIS*         CLOUDY    34  30  85 NW16G23   30.08R WCI  24
$$

ILZ079-100>102-191000-
SOUTHWEST ILLINOIS

CITY           SKY/WX    TMP DP  RH WIND       PRES   REMARKS
ALTON          CLOUDY    35  28  75 NW12G17   30.18R WCI  27
BELLEVILLE     CLOUDY    37  25  62 NW12      30.16R WCI  29
CAHOKIA*       CLOUDY    38  25  59 N14       30.18R WCI  30
SPARTA*        CLOUDY    38  27  64 NW10      30.17R WCI  31
$$

ILZ064>066-069>071-074>076-080>082-084>086-088>090-092>094-191000-
SOUTH-CENTRAL ILLINOIS

CITY           SKY/WX    TMP DP  RH WIND       PRES   REMARKS
CARBONDALE     CLOUDY    39  25  57 NW13G24   30.15R WCI  31
CAIRO*         CLOUDY    42  29  58 NW13G23   30.15R
EFFINGHAM*     CLOUDY    36  30  80 W15       30.13R WCI  26
MARION         CLOUDY    39  24  54 NW9       30.16R WCI  33
MT. VERNON     MOCLDY    37  23  56 VRB7      30.15R WCI  32
CENTRALIA*     CLOUDY    37  27  66 NW16G24   30.14R WCI  28
SALEM*         CLOUDY    38  27  64 NW13      30.14R WCI  30
METROPOLIS*    CLOUDY    42  26  53 NW9G21    30.15R
$$

ILZ067-068-072-073-078-083-087-091-191000-
SOUTHEAST ILLINOIS

CITY           SKY/WX    TMP DP  RH WIND       PRES   REMARKS
LAWRENCEVILLE  CLOUDY    38  27  64 NW21G28   30.10R WCI  28
FLORA*         CLOUDY    38  29  69 NW13G18   30.12R WCI  31
FAIRFIELD*     CLOUDY    38  26  63 NW7       30.12R WCI  33
HARRISBURG*    CLOUDY    39  25  56 NW16G23   30.15R WCI  30
ROBINSON*      CLOUDY    35  28  76 NW16G24   30.10R WCI  25
CARMI*         CLOUDY    38  28  65 NW17      30.12R WCI  29
$$

ABBREVIATIONS USED IN REMARKS
   TC - TEMPERATURE IN CELSIUS
  WCI - WIND CHILL INDEX
   HX - HEAT INDEX
  VSB - VISIBILITY
$$




USA.gov is the U.S. government's official web portal to all federal, state and local government web resources and services.